EW6987 Weather Reports


time (UTC)temp
C
wind
direction
speed
KPH
gust
KPH
rain 1hr
cm
rain 24hr
cm
rain mn
cm
humidity
%
barometer
mb
20260510213042 15 308 0.0 6.4 0.00 0.13 0.00 36 1023.8
20260510211542 15 338 1.6 6.4 0.00 0.13 0.00 38 1023.6
20260510210045 15 305 1.6 6.4 0.00 0.13 0.00 37 1023.6
20260510204541 15 127 1.6 4.8 0.00 0.13 0.00 37 1023.6
20260510203041 15 288 0.0 4.8 0.00 0.13 0.00 37 1023.8
20260510201541 15 282 0.0 4.8 0.00 0.13 0.00 35 1023.9
20260510200039 15 337 1.6 6.4 0.00 0.13 0.00 37 1024.0
20260510194542 15 342 1.6 6.4 0.00 0.13 0.00 37 1024.1
20260510193037 15 24 3.2 8.0 0.00 0.13 0.00 42 1024.2
20260510191537 15 333 1.6 6.4 0.00 0.13 0.00 39 1024.2
20260510190036 15 1 3.2 6.4 0.00 0.13 0.00 40 1024.1
20260510184536 15 1 1.6 8.0 0.00 0.13 0.00 43 1024.1
20260510183034 15 300 1.6 4.8 0.00 0.13 0.00 41 1024.2
20260510181534 14 307 1.6 6.4 0.00 0.13 0.00 43 1024.0
20260510180033 14 303 0.0 6.4 0.00 0.13 0.00 41 1023.9
20260510174633 13 295 1.6 4.8 0.00 0.13 0.00 48 1024.0
20260510173035 13 235 1.6 6.4 0.00 0.13 0.00 46 1023.9
20260510171529 13 224 1.6 6.4 0.00 0.13 0.00 47 1024.1
20260510170030 13 314 0.0 8.0 0.00 0.13 0.00 49 1024.1
20260510164527 13 257 0.0 4.8 0.00 0.13 0.00 50 1024.1
20260510163027 13 249 0.0 4.8 0.00 0.13 0.00 50 1024.0
20260510161525 13 315 1.6 6.4 0.00 0.13 0.00 56 1023.8
20260510160026 13 263 1.6 6.4 0.00 0.13 0.00 57 1023.6
20260510154520 12 342 1.6 6.4 0.00 0.13 0.00 58 1023.4
20260510153022 12 311 3.2 9.7 0.00 0.13 0.00 58 1023.4
20260510151518 12 13 3.2 9.7 0.00 0.13 0.00 59 1023.3
20260510150020 12 310 3.2 9.7 0.00 0.13 0.00 59 1023.0
20260510144520 12 18 3.2 8.0 0.00 0.13 0.00 58 1022.8
20260510143018 12 278 3.2 9.7 0.00 0.13 0.00 59 1022.8
20260510141522 12 335 1.6 9.7 0.00 0.13 0.00 61 1022.8
20260510140010 11 18 3.2 9.7 0.00 0.13 0.00 62 1022.7
20260510134509 11 268 3.2 9.7 0.00 0.13 0.00 62 1022.7
20260510133007 11 19 3.2 11.3 0.00 0.13 0.00 62 1022.5
20260510131506 11 335 4.8 12.9 0.00 0.13 0.00 63 1022.3
20260510130003 11 324 1.6 11.3 0.00 0.13 0.00 61 1021.9
20260510124501 11 290 3.2 9.7 0.00 0.13 0.00 60 1021.8
20260510123115 10 305 3.2 16.1 0.00 0.13 0.00 61 1021.7
20260510121557 10 4 6.4 12.9 0.00 0.13 0.00 58 1021.4
20260510120055 10 4 4.8 17.7 0.00 0.13 0.00 60 1021.2
20260510114551 10 324 4.8 19.3 0.00 0.13 0.00 61 1020.9
20260510113045 10 340 6.4 14.5 0.00 0.13 0.00 65 1020.7
20260510111634 10 17 3.2 14.5 0.00 0.13 0.00 68 1020.4
20260510110052 10 17 4.8 16.1 0.00 0.13 0.00 70 1020.0
20260510104636 10 4 4.8 14.5 0.00 0.13 0.00 70 1020.0
20260510103057 10 3 4.8 17.7 0.00 0.13 0.00 69 1019.4
20260510101503 10 11 6.4 14.5 0.00 0.13 0.00 74 1019.0
20260510100052 10 358 4.8 12.9 0.00 0.13 0.00 80 1018.9
20260510094523 10 36 3.2 12.9 0.00 0.13 0.00 79 1018.5
20260510093051 10 256 3.2 8.0 0.00 0.13 0.00 77 1018.3
20260510091512 10 271 1.6 8.0 0.00 0.13 0.00 74 1018.2
20260510090052 10 250 0.0 8.0 0.00 0.13 0.00 74 1017.7
20260510084503 10 33 0.0 1.6 0.00 0.13 0.00 79 1017.5
20260510083051 10 288 0.0 0.0 0.00 0.13 0.00 81 1017.3
20260510081503 10 290 0.0 1.6 0.00 0.13 0.00 78 1017.3
20260510080048 10 257 0.0 1.6 0.00 0.13 0.00 77 1016.9
20260510074633 11 309 0.0 3.2 0.00 0.13 0.00 77 1016.7
20260510073119 11 310 0.0 3.2 0.00 0.13 0.00 77 1016.5
20260510071533 11 330 0.0 6.4 0.00 0.13 0.00 76 1016.3
20260510070119 11 257 1.6 4.8 0.00 0.13 0.00 75 1016.0
20260510064528 11 295 0.0 8.0 0.00 0.13 0.00 75 1015.9
20260510063115 11 91 1.6 6.4 0.00 0.13 0.00 75 1015.8
20260510061532 12 357 4.8 11.3 0.00 0.13 0.00 74 1015.5
20260510060122 12 5 4.8 9.7 0.00 0.13 0.00 74 1015.4
20260510054556 12 6 4.8 12.9 0.00 0.13 0.00 76 1015.0
20260510053126 12 328 4.8 16.1 0.00 0.13 0.00 73 1014.9
20260510051545 13 10 4.8 19.3 0.00 0.13 0.00 72 1014.6
20260510050001 13 343 6.4 19.3 0.00 0.13 0.00 72 1014.2
20260510044548 15 293 11.3 27.4 0.00 0.13 0.00 71 1013.8
20260510043006 15 266 4.8 22.5 0.00 0.13 0.00 74 1013.2
20260510041629 15 264 4.8 19.3 0.00 0.13 0.00 78 1012.9
20260510040004 15 255 4.8 14.5 0.00 0.13 0.00 80 1012.6
20260510034616 15 220 1.6 11.3 0.00 0.13 0.13 80 1012.1
20260510033027 15 243 0.0 6.4 0.00 0.13 0.13 79 1011.8
20260510031612 15 219 1.6 11.3 0.00 0.13 0.13 77 1011.4
20260510030019 15 181 3.2 9.7 0.00 0.13 0.13 78 1011.3
20260510024613 15 202 4.8 11.3 0.00 0.13 0.13 76 1011.2
20260510023018 16 187 4.8 12.9 0.00 0.13 0.13 77 1011.1
20260510021604 16 190 6.4 14.5 0.00 0.13 0.13 77 1010.9
20260510020017 16 270 4.8 14.5 0.00 0.13 0.13 78 1011.0
20260510014616 15 202 8.0 24.1 0.00 0.13 0.13 79 1010.9
20260510013018 15 194 1.6 8.0 0.00 0.13 0.13 80 1010.7
20260510011611 15 198 0.0 6.4 0.00 0.13 0.13 80 1010.4
20260510010029 16 183 0.0 11.3 0.00 0.13 0.13 77 1010.3
20260510004619 16 171 4.8 9.7 0.00 0.13 0.13 76 1010.2
20260510003031 16 179 4.8 16.1 0.00 0.13 0.13 74 1010.2
20260510001620 17 196 4.8 11.3 0.00 0.13 0.13 71 1010.3
20260510000058 17 231 8.0 16.1 0.00 0.13 0.13 68 1010.2
20260509234518 17 213 4.8 16.1 0.00 0.13 0.13 70 1010.3
20260509233058 17 257 6.4 20.9 0.00 0.13 0.13 70 1010.2
20260509231508 17 206 4.8 22.5 0.00 0.13 0.13 71 1010.1
20260509230057 17 233 8.0 19.3 0.03 0.13 0.13 71 1010.0
20260509224516 17 206 6.4 14.5 0.03 0.18 0.13 77 1010.1
20260509223104 16 185 6.4 19.3 0.13 0.18 0.13 82 1010.1
20260509221516 15 205 4.8 22.5 0.13 0.18 0.13 93 1009.9
20260509220110 14 209 6.4 17.7 0.10 0.15 0.10 93 1010.0
20260509214514 17 254 12.9 33.8 0.10 0.18 0.10 74 1010.0